Tracking 18844 objects as of 21-Nov-2017
HD Live streaming from Space Station
objects crossing your sky now

FENGYUN 1C DEB

Track FENGYUN 1C DEB now!
10-day predictions


NORAD ID: 31752
Int'l Code: 1999-025CFB
Perigee: 677.5 km
Apogee: 1,270.9 km
Inclination: 98.9 °
Period: 104.4 minutes
Semi major axis: 7345 km
RCS: 0.0083 m2 (small)
Launch date: May 10, 1999
Source: People's Republic of China (PRC)
Launch site: Taiyaun Space Center, China (TSC)

Note: This is SATELLITE DEBRIS
aabbcc
Your satellite tracking list
Your tracking list is empty




NASA's NSSDC Master Catalog

Two Line Element Set (TLE):
1 31752U 99025CFB 17323.25872125  .00000800  00000-0  44787-3 0  9992
2 31752  98.9044 119.4914 0403922 343.5468  15.2886 13.79101207528899
Source of the keplerian elements: AFSPC